TimeEDT,TemperatureF,Dew PointF,Humidity,Sea Level PressureIn,VisibilityMPH,Wind Direction,Wind SpeedMPH,Gust SpeedMPH,PrecipitationIn,Events,Conditions,WindDirDegrees,DateUTC
12:53 AM,51.1,50.0,96,29.71,10.0,South,4.6,-,N/A,,Clear,170,2012-10-15 04:53:00
1:53 AM,52.0,50.0,93,29.70,10.0,Calm,Calm,-,N/A,,Partly Cloudy,0,2012-10-15 05:53:00
2:53 AM,55.0,51.1,86,29.68,10.0,South,8.1,-,0.00,Rain,Light Rain,170,2012-10-15 06:53:00
3:53 AM,57.0,52.0,83,29.64,10.0,South,6.9,-,0.01,,Mostly Cloudy,180,2012-10-15 07:53:00
4:53 AM,57.9,51.1,78,29.62,10.0,SSE,6.9,-,0.00,,Mostly Cloudy,160,2012-10-15 08:53:00
5:53 AM,57.9,50.0,75,29.60,10.0,South,5.8,-,N/A,,Mostly Cloudy,170,2012-10-15 09:53:00
6:53 AM,57.9,50.0,75,29.59,10.0,South,9.2,17.3,N/A,,Clear,180,2012-10-15 10:53:00
7:53 AM,57.0,50.0,77,29.59,10.0,South,4.6,-,N/A,,Clear,190,2012-10-15 11:53:00
8:53 AM,57.9,51.1,78,29.58,10.0,SSE,6.9,-,N/A,,Clear,150,2012-10-15 12:53:00
9:53 AM,61.0,54.0,78,29.57,10.0,SSE,10.4,-,N/A,,Clear,160,2012-10-15 13:53:00
10:53 AM,64.9,55.0,70,29.56,10.0,SSE,15.0,25.3,N/A,,Clear,160,2012-10-15 14:53:00
11:53 AM,66.9,55.9,68,29.55,10.0,South,17.3,23.0,N/A,,Overcast,170,2012-10-15 15:53:00
12:53 PM,64.9,55.9,73,29.54,10.0,SSE,12.7,-,N/A,,Overcast,150,2012-10-15 16:53:00
1:53 PM,61.0,55.0,81,29.57,10.0,Variable,5.8,-,0.00,Rain,Light Rain,0,2012-10-15 17:53:00
2:53 PM,62.1,53.1,72,29.58,10.0,Variable,3.5,-,0.00,,Overcast,0,2012-10-15 18:53:00
3:53 PM,62.1,52.0,70,29.58,10.0,West,8.1,-,N/A,,Partly Cloudy,270,2012-10-15 19:53:00
4:53 PM,62.1,48.9,62,29.57,10.0,Variable,4.6,-,N/A,,Overcast,0,2012-10-15 20:53:00
5:53 PM,61.0,48.0,62,29.58,10.0,Variable,5.8,-,N/A,,Partly Cloudy,0,2012-10-15 21:53:00
6:53 PM,59.0,46.9,64,29.59,10.0,Calm,Calm,-,N/A,,Mostly Cloudy,0,2012-10-15 22:53:00
7:53 PM,59.0,45.0,60,29.60,10.0,Variable,3.5,-,N/A,,Clear,0,2012-10-15 23:53:00
8:53 PM,57.9,44.1,60,29.61,10.0,SW,8.1,17.3,N/A,,Partly Cloudy,230,2012-10-16 00:53:00
9:53 PM,55.0,44.1,67,29.60,10.0,SSW,4.6,-,N/A,,Clear,200,2012-10-16 01:53:00
10:53 PM,55.0,43.0,64,29.60,10.0,SW,3.5,-,N/A,,Scattered Clouds,220,2012-10-16 02:53:00
11:53 PM,55.0,43.0,64,29.60,10.0,Variable,5.8,-,N/A,,Overcast,0,2012-10-16 03:53:00